Overview Statistics Trail Chart Weather Telemetry Raw packets
 

This is the latest recevied weather packets stored in our database for station/object W0PE-1. If no packets are shown the sender has not sent any weather packets the latest 10 day(s).

<< 34 35 36 37 38 39 >>
Time Temp. Humidity Pressure Rain* Wind** Luminosity Snow
1787796060 31.67° C 51% 1008.5 hPa 0 mm - - -
1787795159 31.67° C 50% 1008.4 hPa 0 mm - - -
1787794258 32.22° C 49% 1008.4 hPa 0 mm - - -
1787793358 32.78° C 46% 1008.5 hPa 0 mm - - -
1787792458 33.33° C 44% 1008.5 hPa 0 mm - - -
1787791556 33.89° C 43% 1008.5 hPa 0 mm - - -
1787790656 34.44° C 41% 1008.4 hPa 0 mm - - -
1787789756 35° C 40% 1008.4 hPa 0 mm - - -
1787788855 35° C 39% 1008.5 hPa 0 mm - - -
1787787955 35.56° C 36% 1008.4 hPa 0 mm - - -
1787787053 36.11° C 35% 1008.4 hPa 0 mm - - -
1787786152 36.67° C 36% 1008.6 hPa 0 mm - - -
1787785260 36.67° C 36% 1008.6 hPa 0 mm - - -
1787784361 36.67° C 36% 1008.6 hPa 0 mm - - -
1787783448 36.67° C 38% 1008.8 hPa 0 mm - - -
1787782550 37.22° C 37% 1009.1 hPa 0 mm - - -
1787781653 36.67° C 38% 1009.3 hPa 0 mm - - -
1787780758 37.22° C 38% 1009.4 hPa 0 mm - - -
1787779843 36.67° C 39% 1009.5 hPa 0 mm - - -
1787778953 37.22° C 39% 1009.7 hPa 0 mm - - -
1787778066 36.67° C 40% 1010 hPa 0 mm - - -
1787777139 36.67° C 40% 1010.1 hPa 0 mm - - -
1787776239 36.67° C 40% 1010.2 hPa 0 mm - - -
1787775342 36.11° C 41% 1010.3 hPa 0 mm - - -
1787774436 36.11° C 42% 1010.5 hPa 0 mm - - -

* Rain latest hour (hover to see other rain measurements)
** Current wind speed in m/s (hover to see current wind gust speed)